Regional Weather Roundup
Issued by NWS Grand Forks, ND

Home | Current Version | Previous Version | Text Only | Print | Product List | Glossary On
Versions: 1 2 3 4 5 6 7 8 9 10 11 12 13 14 15 16 17 18 19 20 21 22 23 24 25 26 27 28 29 30 31 32 33 34 35 36 37 38 39 40 41 42 43 44 45 46 47 48 49 50
000
ASUS43 KFGF 011631
RWRFGF
PRAIRIE TO PINES  WEATHER ROUNDUP
NATIONAL WEATHER SERVICE EASTERN NORTH DAKOTA/GRAND FORKS ND
1100 AM CDT FRI AUG 01 2014

 **SATELLITE DATA USED TO AUGMENT SKY COVER AT AUTOMATED STATIONS**
 *****  WEATHER ACROSS EASTERN NORTH DAKOTA  *****

CITY           SKY/WX    TMP DP  RH WIND       PRES   REMARKS
GRAND FORKS    MOSUNNY   76  59  55 N6        30.07R
GRAND FRKS AFB SUNNY     76  59  56 N3        30.09R
GRAND FRKS NWS   N/A     77 N/A N/A NW2         N/A
DEVILS LAKE    SUNNY     75  59  57 S7        30.09S
FARGO          MOSUNNY   77  63  61 NE5       30.07R
WAHPETON ARPT  SUNNY     77  59  53 NW7       30.08S
$$

 ***** WEATHER ACROSS CENTRAL AND WESTERN NORTH DAKOTA  *****

CITY           SKY/WX    TMP DP  RH WIND       PRES   REMARKS
BISMARCK       SUNNY     79  58  48 S6        30.08S
MINOT          SUNNY     76  62  62 NE5       30.09R
JAMESTOWN      SUNNY     77  61  57 N5        30.10R
MINOT AFB      SUNNY     76  62  62 NE2       30.09R
GARRISON         N/A     77  61  57 E10       30.08S
WILLISTON      LGT RAIN  66  60  81 E14       30.07F
DICKINSON      MOSUNNY   75  59  57 NE9       30.06S
HETTINGER      PTSUNNY   77  56  48 SE7       30.08S
$$

 *****  OTHER AIRPORT OBSERVATIONS IN OUR AREA  *****

CITY           SKY/WX    TMP DP  RH WIND       PRES   REMARKS
WALHALLA       FAIR      75  63  64 NE5         N/A
GRAFTON AIRPOR FAIR      75  59  57 CALM      30.09R
VALLEY CITY AR FAIR      77  63  61 CALM      30.10S
CANDO          FAIR      75  63  64 S3        30.11S
CAVALIER APRT  FAIR      75  59  57 N5        30.09S
GWINNER        SUNNY     79  61  53 NW6       30.11R
SHEYENNE NWR     N/A     78  62  57 W5        29.95S
ROLLA            N/A     73  61  64 S5        30.13S
 ***** THE ABOVE OBSERVATIONS ARE NON NWS ARE NOT QUALITY
       CONTROLLED AND MAY MIS-REPORT RAIN FOR SNOW...
$$

  *****  WEATHER ACROSS NORTHERN MINNESOTA  *****

CITY           SKY/WX    TMP DP  RH WIND       PRES   REMARKS
FLAG ISLAND    SUNNY     72  55  56 N3        30.07R
WARROAD        SUNNY     72  63  73 E7        30.09R
ROSEAU         SUNNY     73  61  64 CALM      30.08S
HALLOCK        SUNNY     77  59  53 N5        30.07S
THF RVR FALLS  SUNNY     73  61  64 N7        30.08S
BAUDETTE       SUNNY     74  64  71 N6        30.08R
WASKISH        SUNNY     73  64  73 CALM      30.07R
CROOKSTON      SUNNY     75  59  57 N7        30.09R
$$
  *****  WEATHER ACROSS CENTRAL AND WEST MINNESOTA  *****

CITY           SKY/WX    TMP DP  RH WIND       PRES   REMARKS
FOSSTON        SUNNY     73  59  60 NW6       30.09S
BEMIDJI        SUNNY     74  55  51 NW7       30.07S
PARK RAPIDS    SUNNY     76  54  46 N7        30.07R
ELBOW LAKE     FAIR      75  63  66 W5        30.08R
WADENA         SUNNY     75  63  64 CALM      30.08R
DETROIT LAKES  SUNNY     77  59  53 N7        30.10R
MOORHEAD       SUNNY     75  66  73 N6        30.08R
FERGUS FALLS   SUNNY     75  61  60 W6        30.07S
MORRIS MN      SUNNY     79  63  57 NW9       30.08R
STAPLES        MOSUNNY   75  59  57 W3        30.08R
$$
  *****  WEATHER ELSEWHERE ACROSS MINNESOTA  *****

CITY           SKY/WX    TMP DP  RH WIND       PRES   REMARKS
DULUTH         SUNNY     70  55  59 SE3       30.08R
INTRNTL FALLS  SUNNY     72  58  61 E5        30.06S
ELY            SUNNY     70  54  56 CALM      30.08R
CLOQUET        SUNNY     70  55  60 CALM      30.07F
WHEATON        MOSUNNY   73  59  60 NW8       30.10S
BRAINERD       PTSUNNY   75  60  59 W5        30.07S
HIBBING        SUNNY     75  57  53 CALM      30.07S
ALEXANDRIA     SUNNY     76  61  59 W5        30.10R
SAINT CLOUD    MOSUNNY   81  58  45 NW5       30.07R
MINNEAPOLIS    SUNNY     80  59  48 W5        30.06S
$$

  *****  WEATHER ACROSS SOUTH DAKOTA  *****

CITY           SKY/WX    TMP DP  RH WIND       PRES   REMARKS
SIOUX FALLS    MOSUNNY   76  62  62 CALM      30.12R
BROOKINGS      NOT AVBL
WATERTOWN      SUNNY     76  57  51 VRB3      30.11S
HURON          SUNNY     76  62  62 VRB3      30.10R
SISSETON         N/A     79  63  57 NE6       30.08R
ABERDEEN       SUNNY     77  58  51 S5        30.09S
MITCHELL       SUNNY     76  63  64 SE6       30.11R
PIERRE         SUNNY     83  59  44 SE14      30.05F
MOBRIDGE       SUNNY     77  65  66 SE14      30.05S
RAPID CITY     SUNNY     82  55  39 SE5       30.10S
$$

  *****  SOME WEATHER IN NEARBY STATES *****

CITY           SKY/WX    TMP DP  RH WIND       PRES   REMARKS
GLASGOW MT     SUNNY     79  56  45 N3        30.09R
GREAT FALLS MT MOSUNNY   70  52  52 W6        30.21R
CHEYENNE WY    SUNNY     71  45  39 SW9       30.32S
SCOTTSBLUFF NE SUNNY     77  53  43 CALM      30.21S
OMAHA NE       PTSUNNY   76  62  62 VRB5      30.09S
DES MOINES IA  MOSUNNY   78  61  55 CALM      30.09S
DAVENPORT IA   SUNNY     77  63  61 W7        30.10S
CHICAGO IL     PTSUNNY   79  56  45 CALM      30.09R
EAU CLAIRE WI  SUNNY     75  63  66 W6        30.05S
LA CROSSE WI   SUNNY     77  61  57 CALM      30.07S
$$

  *****  SOME NATIONAL WEATHER *****

CITY           SKY/WX    TMP DP  RH WIND       PRES   REMARKS
LA GUARDIA NY  PTSUNNY   83  65  54 S8        30.19S
RALEIGH NC     CLOUDY    75  67  76 E9        30.14R
ATLANTA GA     PTSUNNY   73  67  81 NE8       30.09F
NEW ORLEANS LA CLOUDY    86  69  56 S9        30.01S HX  90
OKLAHOMA CITY  PTSUNNY   75  64  69 VRB5      30.12S
ALBUQUERQUE NM PTSUNNY   70  54  56 CALM      30.29F
SALT LAKE CITY MOSUNNY   77  50  38 CALM      30.17S
LOS ANGELES CA MOSUNNY   72  63  73 SE3       29.94R
BOISE ID       MOSUNNY   80  49  33 N3        30.08S
SEATTLE WA     PTSUNNY   70  53  54 CALM      30.08R
$$

*** WEATHER ACROSS MANITOBA...SASKATCHEWAN AND ONTARIO ***
                ***ONTARIO***

CITY           SKY/WX    TMP DP  RH WIND       PRES   REMARKS
GERALDTON      CLOUDY    59  50  72 N2        30.07S
THUNDER BAY    PTSUNNY   70  57  64 E6        30.06S
SIOUX LOOKOUT  MOSUNNY   72  50  46 NW7       30.07S
TORONTO        MOSUNNY   79  57  47 SW9       30.10S
BIG TROUT LK   CLOUDY    59  50  72 VRB6      30.05F
PICKLE LAKE    PTSUNNY   68  48  49 N3        30.04S
DRYDEN         SUNNY     72  43  35 NW6       30.08
KENORA         MOSUNNY   72  52  49 N6        30.10R
$$
                *** MANITOBA***

CITY           SKY/WX    TMP DP  RH WIND       PRES   REMARKS
BRANDON        PTSUNNY   73  61  64 W6        30.10S
DAUPHIN        SUNNY     77  61  57 W12       30.06S
ISLAND LAKE    PTSUNNY   72  54  53 S3        30.04
PILOT MOUND      N/A     75  57  53 S1          N/A
THE PAS        LGT RAIN  66  63  88 N3        30.03
THOMPSON       LGT RAIN  66  64  94 NW3       29.98S
WINNIPEG       MOSUNNY   77  55  47 NW3       30.08R
LYNN LAKE      MOSUNNY   66  59  77 N10       30.06R HAZE
CHURCHILL      PTSUNNY   72  52  49 SW8       29.92F
GILLAM         CLOUDY    73  52  46 S15       29.96F
$$
                ***SASKATCHEWAN***

CITY           SKY/WX    TMP DP  RH WIND       PRES   REMARKS
ESTEVAN        CLOUDY    73  61  64 S3        30.11S
KINDERSLEY     LGT RAIN  64  61  88 NE14      30.13R
LLOYDMINSTER   CLOUDY    63  59  88 N8        30.19F
PRINCE ALBERT  PTSUNNY   70  63  78 NW5       30.11S
REGINA         MOSUNNY   75  59  57 SE8       30.11R
YORKTON        SUNNY     75  61  60 VRB3      30.10R
N. BATTLEFORD    N/A     66  63  88 W6        30.16F
LA RONGE       PTSUNNY   68  61  77 N8        30.11R
SASKATOON      PTSUNNY   73  63  68 N5        30.12F
SWIFT CURRENT  MOSUNNY   72  57  60 N9        30.14F
$$
NOTE: THESE ARE AUTOMATED STATIONS WITH LIMITED QUALITY CONTROL
      "FAIR" INDICATES FEW OR NO CLOUDS BELOW 12,000 FEET WITH NO
      SIGNIFICANT WEATHER AND/OR OBSTRUCTIONS TO VISIBILITY.
      SKY/WX - SKY CONDITION AND SIGNIFICANT WEATHER.
      TMP - AIR TEMPERATURE.    DP   - DEWPOINT TEMPERATURE.
      RH  - RELATIVE HUMIDITY.  PRES - PRESSURE.
      HX  - HEAT INDEX.         WCI  - WIND CHILL INDEX.
$



USA.gov is the U.S. government's official web portal to all federal, state and local government web resources and services.